TimeCDT,TemperatureF,Dew PointF,Humidity,Sea Level PressureIn,VisibilityMPH,Wind Direction,Wind SpeedMPH,Gust SpeedMPH,PrecipitationIn,Events,Conditions,WindDirDegrees,DateUTC
12:15 AM,48.6,41.9,78,30.22,10.0,North,5.8,-,N/A,,Overcast,350,2012-10-07 05:15:00
12:35 AM,48.6,42.3,79,30.22,10.0,North,8.1,-,N/A,,Overcast,350,2012-10-07 05:35:00
12:55 AM,48.4,42.4,80,30.21,10.0,North,5.8,-,N/A,,Overcast,350,2012-10-07 05:55:00
1:15 AM,48.2,42.4,80,30.21,10.0,North,6.9,-,N/A,,Overcast,360,2012-10-07 06:15:00
1:35 AM,48.2,42.4,80,30.21,10.0,North,5.8,-,N/A,,Overcast,360,2012-10-07 06:35:00
1:55 AM,48.2,42.1,79,30.20,10.0,North,3.5,-,N/A,,Overcast,10,2012-10-07 06:55:00
2:15 AM,48.2,42.1,79,30.21,10.0,North,4.6,-,N/A,,Overcast,10,2012-10-07 07:15:00
2:35 AM,48.0,41.0,77,30.21,10.0,North,5.8,-,N/A,,Overcast,10,2012-10-07 07:35:00
2:55 AM,48.2,41.4,77,30.22,10.0,North,9.2,-,N/A,,Overcast,350,2012-10-07 07:55:00
3:15 AM,47.7,41.2,78,30.21,10.0,NNE,6.9,-,N/A,,Overcast,20,2012-10-07 08:15:00
3:35 AM,47.5,40.5,77,30.20,10.0,North,4.6,-,N/A,,Overcast,360,2012-10-07 08:35:00
3:55 AM,47.5,40.6,77,30.21,10.0,North,6.9,-,N/A,,Overcast,10,2012-10-07 08:55:00
4:15 AM,47.5,40.5,77,30.22,10.0,North,6.9,-,N/A,,Overcast,360,2012-10-07 09:15:00
4:35 AM,47.3,41.0,79,30.21,10.0,North,4.6,-,N/A,,Overcast,10,2012-10-07 09:35:00
4:55 AM,47.1,41.0,79,30.21,10.0,North,8.1,-,N/A,,Overcast,10,2012-10-07 09:55:00
5:15 AM,46.9,41.0,80,30.21,10.0,North,4.6,-,N/A,,Mostly Cloudy,10,2012-10-07 10:15:00
5:35 AM,46.8,40.5,79,30.22,10.0,North,5.8,-,N/A,,Scattered Clouds,10,2012-10-07 10:35:00
5:55 AM,46.8,40.1,78,30.23,10.0,North,5.8,-,N/A,,Scattered Clouds,10,2012-10-07 10:55:00
6:15 AM,47.1,40.1,77,30.23,10.0,North,4.6,-,N/A,,Mostly Cloudy,10,2012-10-07 11:15:00
6:35 AM,46.9,40.1,77,30.24,10.0,North,5.8,-,N/A,,Scattered Clouds,10,2012-10-07 11:35:00
6:55 AM,46.9,40.5,78,30.25,10.0,North,3.5,-,N/A,,Clear,10,2012-10-07 11:55:00
7:15 AM,46.9,40.5,78,30.26,10.0,North,3.5,-,N/A,,Clear,10,2012-10-07 12:15:00
7:35 AM,46.9,40.8,79,30.26,10.0,North,4.6,-,N/A,,Clear,10,2012-10-07 12:35:00
7:55 AM,47.3,41.2,79,30.26,10.0,North,4.6,-,N/A,,Clear,360,2012-10-07 12:55:00
8:15 AM,47.3,41.2,79,30.27,10.0,NNE,4.6,-,N/A,,Clear,20,2012-10-07 13:15:00
8:35 AM,47.5,41.4,79,30.27,10.0,NNE,4.6,-,N/A,,Scattered Clouds,20,2012-10-07 13:35:00
8:55 AM,48.2,41.7,78,30.27,10.0,North,5.8,-,N/A,,Mostly Cloudy,360,2012-10-07 13:55:00
9:15 AM,49.1,42.1,77,30.28,10.0,North,4.6,-,N/A,,Overcast,10,2012-10-07 14:15:00
9:35 AM,49.5,41.5,74,30.29,10.0,North,5.8,-,N/A,,Overcast,10,2012-10-07 14:35:00
9:55 AM,50.4,41.9,73,30.29,10.0,NE,4.6,-,N/A,,Overcast,40,2012-10-07 14:55:00
10:15 AM,50.9,41.5,70,30.30,10.0,North,9.2,16.1,N/A,,Overcast,360,2012-10-07 15:15:00
10:35 AM,51.4,41.5,69,30.29,10.0,North,4.6,-,N/A,,Overcast,10,2012-10-07 15:35:00
10:55 AM,52.5,41.5,66,30.27,10.0,NE,6.9,-,N/A,,Overcast,40,2012-10-07 15:55:00
11:15 AM,54.9,42.3,63,30.28,10.0,NNE,5.8,-,N/A,,Overcast,20,2012-10-07 16:15:00
11:35 AM,53.8,40.5,61,30.28,10.0,NE,5.8,-,N/A,,Mostly Cloudy,50,2012-10-07 16:35:00
11:55 AM,55.6,40.8,58,30.27,10.0,NE,4.6,-,N/A,,Scattered Clouds,40,2012-10-07 16:55:00
12:15 PM,55.4,40.8,58,30.26,10.0,NNE,8.1,-,N/A,,Mostly Cloudy,20,2012-10-07 17:15:00
12:35 PM,56.3,40.8,56,30.25,10.0,North,8.1,-,N/A,,Mostly Cloudy,10,2012-10-07 17:35:00
12:55 PM,58.1,40.5,52,30.23,10.0,NE,8.1,-,N/A,,Mostly Cloudy,50,2012-10-07 17:55:00
1:15 PM,59.2,40.6,50,30.23,10.0,North,5.8,17.3,N/A,,Overcast,10,2012-10-07 18:15:00
1:35 PM,60.4,41.2,49,30.21,10.0,ENE,4.6,-,N/A,,Scattered Clouds,60,2012-10-07 18:35:00
1:55 PM,60.4,39.9,47,30.20,10.0,North,8.1,-,N/A,,Scattered Clouds,360,2012-10-07 18:55:00
2:15 PM,59.7,40.1,48,30.19,10.0,NNE,4.6,-,N/A,,Scattered Clouds,30,2012-10-07 19:15:00
2:35 PM,61.5,39.7,45,30.18,10.0,NNE,6.9,-,N/A,,Scattered Clouds,20,2012-10-07 19:35:00
2:55 PM,59.5,38.7,46,30.18,10.0,North,8.1,-,N/A,,Mostly Cloudy,360,2012-10-07 19:55:00
3:15 PM,60.1,36.5,41,30.17,10.0,NNE,10.4,-,N/A,,Overcast,20,2012-10-07 20:15:00
3:35 PM,59.7,36.7,42,30.18,10.0,NNE,5.8,-,N/A,,Overcast,30,2012-10-07 20:35:00
3:55 PM,59.5,36.3,42,30.18,10.0,ENE,5.8,-,N/A,,Overcast,70,2012-10-07 20:55:00
4:15 PM,58.6,38.1,46,30.17,10.0,ENE,4.6,-,N/A,,Overcast,60,2012-10-07 21:15:00
4:35 PM,58.1,39.6,50,30.16,10.0,NE,4.6,-,N/A,,Overcast,50,2012-10-07 21:35:00
4:55 PM,57.6,40.6,53,30.17,10.0,Calm,Calm,-,N/A,,Overcast,0,2012-10-07 21:55:00
5:15 PM,57.2,41.4,55,30.17,10.0,Calm,Calm,-,N/A,,Overcast,0,2012-10-07 22:15:00
5:35 PM,56.8,42.6,59,30.16,10.0,Calm,Calm,-,N/A,,Overcast,0,2012-10-07 22:35:00
5:55 PM,56.7,43.3,61,30.17,10.0,Calm,Calm,-,N/A,,Light Drizzle,0,2012-10-07 22:55:00
6:15 PM,55.6,46.6,72,30.15,10.0,Calm,Calm,-,N/A,,Overcast,0,2012-10-07 23:15:00
6:35 PM,55.8,45.5,68,30.17,10.0,Calm,Calm,-,N/A,,Overcast,0,2012-10-07 23:35:00
6:55 PM,55.2,46.6,73,30.17,10.0,Calm,Calm,-,N/A,,Overcast,0,2012-10-07 23:55:00
7:15 PM,54.9,46.8,74,30.17,10.0,North,4.6,-,N/A,,Overcast,360,2012-10-08 00:15:00
7:35 PM,54.9,46.6,74,30.17,10.0,NNE,3.5,-,N/A,,Overcast,30,2012-10-08 00:35:00
7:55 PM,54.7,46.4,74,30.18,10.0,North,4.6,-,N/A,,Overcast,360,2012-10-08 00:55:00
8:15 PM,54.5,46.0,73,30.17,10.0,Calm,Calm,-,N/A,,Overcast,0,2012-10-08 01:15:00
8:35 PM,54.5,45.9,73,30.17,10.0,Calm,Calm,-,N/A,,Overcast,0,2012-10-08 01:35:00
8:55 PM,54.5,46.0,73,30.18,10.0,Calm,Calm,-,N/A,,Overcast,0,2012-10-08 01:55:00
9:15 PM,54.5,46.6,75,30.18,10.0,North,6.9,-,N/A,,Overcast,360,2012-10-08 02:15:00
9:35 PM,53.6,46.4,77,30.18,10.0,North,5.8,-,N/A,,Overcast,360,2012-10-08 02:35:00
9:55 PM,53.6,46.6,77,30.19,10.0,North,9.2,-,N/A,,Overcast,360,2012-10-08 02:55:00
10:15 PM,52.9,46.4,79,30.20,10.0,NNW,9.2,-,N/A,,Overcast,340,2012-10-08 03:15:00
10:35 PM,52.2,45.5,78,30.22,10.0,North,8.1,-,N/A,,Overcast,360,2012-10-08 03:35:00
10:55 PM,51.8,45.0,77,30.21,10.0,NNE,3.5,-,N/A,,Overcast,20,2012-10-08 03:55:00
11:15 PM,51.4,45.3,80,30.22,10.0,North,6.9,-,N/A,Rain,Light Rain,350,2012-10-08 04:15:00
11:35 PM,50.9,45.9,83,30.21,10.0,North,4.6,-,N/A,,Overcast,360,2012-10-08 04:35:00
11:55 PM,50.4,45.9,85,30.20,10.0,North,3.5,-,N/A,,Overcast,360,2012-10-08 04:55:00